"Pseudo-MPEC" for P20M336

Created 2019 Feb 20 14:18:05 UT using Find_Orb

Click here for an explanation of pseudo-MPECs

 
 Astrometry: 
     P20M336  C2019 02 04.sPAstrometry?G(!/D:jH88*_redacted;kelOA##FHlw0]sVI7F52
     P20M336  C2019 02 04WQlAclickua1wSI\8o!^xBb.Il_here3*X+:(vL3Bmc)$:7'v)PxF52
     P20M336  C2019 02 04hNtPOfort8RAR?%0$?lTEvlCZJ]qexplanationR4T\fB1`L:5?lF52

Station data:
(F52) Pan-STARRS 2, Haleakala  (N20.707384 W156.255910)  US/Hawaii.

Orbital elements:  P20M336
   Perihelion 2018 Dec 8.607931 +/- 970 TT = 14:35:25 (JD 2458461.107931)
Epoch 2019 Feb  4.0 TT = JDT 2458518.5   Earth MOID: 0.4947   Ma: 0.0046
M  14.03355532 +/- 50               (J2000 ecliptic)          AutoNEOCP
n   0.24452081 +/- 0.139            Peri.  204.09462 +/- 90
a   2.53274905 +/- 0.959            Node   250.44627 +/- 34
e   0.4191787 +/- 0.208             Incl.   10.94787 +/- 37
P   4.03                   H 20.1   G  0.15   U 11.5  SR
q 1.47107441 +/- 2.05    Q 3.59442370 +/- 104
From 3 observations 2019 Feb. 4 (33.6 min); mean residual 0".13
Residuals in arcseconds: 
190204 F52  .12-  .04+    190204 F52  .24+  .08-    190204 F52  .12-  .04+    

Ephemerides (geocentric):
Date (UTC) HH   RA              Dec         delta   r     elong  mag " sig PA
---- -- -- --  -------------   -----------  ------ ------ -----  --- ---- ---
2019 02 20 14  07 56 57.596   -03 37 24.30  .71147 1.6147 143.0 21.5 3947 160
2019 02 20 15  07 56 58.092   -03 37 10.53  .71176 1.6149 143.0 21.5 3963 160
2019 02 20 16  07 56 58.591   -03 36 56.74  .71205 1.6150 142.9 21.5 3979 160
2019 02 20 17  07 56 59.094   -03 36 42.94  .71233 1.6152 142.9 21.5 3996 160
2019 02 20 18  07 56 59.601   -03 36 29.12  .71262 1.6153 142.9 21.5 4012 160
2019 02 20 19  07 57 00.112   -03 36 15.29  .71291 1.6155 142.9 21.5 4028 160
2019 02 20 20  07 57 00.627   -03 36 01.43  .71320 1.6156 142.8 21.5 4045 160
2019 02 20 21  07 57 01.146   -03 35 47.56  .71349 1.6158 142.8 21.5 4061 160
2019 02 20 22  07 57 01.668   -03 35 33.68  .71377 1.6159 142.8 21.5 4078 160
2019 02 20 23  07 57 02.195   -03 35 19.77  .71406 1.6161 142.7 21.5 4095 160
2019 02 21 00  07 57 02.725   -03 35 05.85  .71435 1.6162 142.7 21.5 4111 160
2019 02 21 01  07 57 03.259   -03 34 51.92  .71464 1.6164 142.7 21.5 4128 160
2019 02 21 02  07 57 03.797   -03 34 37.97  .71493 1.6165 142.7 21.5 4145 160
2019 02 21 03  07 57 04.339   -03 34 24.00  .71522 1.6167 142.6 21.5 4162 160
2019 02 21 04  07 57 04.884   -03 34 10.01  .71551 1.6168 142.6 21.5 4178 160
2019 02 21 05  07 57 05.434   -03 33 56.01  .71580 1.6170 142.6 21.5 4195 160
2019 02 21 06  07 57 05.987   -03 33 42.00  .71609 1.6171 142.6 21.5 4212 160
2019 02 21 07  07 57 06.545   -03 33 27.96  .71638 1.6173 142.5 21.5 4229 160
2019 02 21 08  07 57 07.106   -03 33 13.91  .71667 1.6174 142.5 21.5 4246 160
2019 02 21 09  07 57 07.671   -03 32 59.85  .71697 1.6176 142.5 21.5 4263 160
2019 02 21 10  07 57 08.240   -03 32 45.77  .71726 1.6177 142.4 21.5 4281 160
2019 02 21 11  07 57 08.812   -03 32 31.67  .71755 1.6179 142.4 21.5 4298 160
2019 02 21 12  07 57 09.389   -03 32 17.56  .71784 1.6180 142.4 21.5 4315 160
2019 02 21 13  07 57 09.969   -03 32 03.43  .71813 1.6182 142.4 21.5 4332 159
2019 02 21 14  07 57 10.554   -03 31 49.29  .71843 1.6183 142.3 21.5 4350 159
2019 02 21 15  07 57 11.142   -03 31 35.13  .71872 1.6185 142.3 21.5 4367 159
2019 02 21 16  07 57 11.734   -03 31 20.95  .71901 1.6186 142.3 21.5 4385 159
2019 02 21 17  07 57 12.330   -03 31 06.76  .71930 1.6188 142.2 21.5 4402 159
2019 02 21 18  07 57 12.929   -03 30 52.55  .71960 1.6189 142.2 21.5 4420 159
2019 02 21 19  07 57 13.533   -03 30 38.33  .71989 1.6191 142.2 21.5 4437 159
2019 02 21 20  07 57 14.140   -03 30 24.10  .72019 1.6192 142.2 21.5 4455 159
2019 02 21 21  07 57 14.751   -03 30 09.84  .72048 1.6194 142.1 21.5 4472 159
2019 02 21 22  07 57 15.366   -03 29 55.58  .72077 1.6195 142.1 21.5 4490 159
2019 02 21 23  07 57 15.985   -03 29 41.30  .72107 1.6197 142.1 21.5 4508 159
2019 02 22 00  07 57 16.608   -03 29 27.00  .72136 1.6198 142.1 21.5 4526 159
2019 02 22 01  07 57 17.235   -03 29 12.69  .72166 1.6200 142.0 21.5 4544 159
2019 02 22 02  07 57 17.865   -03 28 58.36  .72195 1.6201 142.0 21.5 4562 159
2019 02 22 03  07 57 18.499   -03 28 44.02  .72225 1.6203 142.0 21.5 4580 159
2019 02 22 04  07 57 19.138   -03 28 29.66  .72255 1.6204 141.9 21.5 4598 159
2019 02 22 05  07 57 19.780   -03 28 15.29  .72284 1.6206 141.9 21.5 4616 159
2019 02 22 06  07 57 20.425   -03 28 00.90  .72314 1.6207 141.9 21.5 4634 159
2019 02 22 07  07 57 21.075   -03 27 46.50  .72343 1.6209 141.9 21.5 4652 159
2019 02 22 08  07 57 21.729   -03 27 32.09  .72373 1.6210 141.8 21.5 4671 159
2019 02 22 09  07 57 22.386   -03 27 17.66  .72403 1.6212 141.8 21.5 4689 159
2019 02 22 10  07 57 23.047   -03 27 03.21  .72433 1.6213 141.8 21.5 4707 159
2019 02 22 11  07 57 23.712   -03 26 48.76  .72462 1.6215 141.7 21.5 4726 159
2019 02 22 12  07 57 24.381   -03 26 34.28  .72492 1.6216 141.7 21.5 4744 159
2019 02 22 13  07 57 25.053   -03 26 19.80  .72522 1.6218 141.7 21.5 4763 159